Weather History for Omaha Millard, NE

Change the Weather History Date:

Wednesday, January 22, 2014

  Actual Average (KOMA) Record (KOMA)
Temperature  
Mean Temperature 14 °F 24 °F  
Max Temperature 29 °F 34 °F 58 °F (1989)
Min Temperature 0 °F 14 °F -19 °F (1883)
Degree Days  
Heating Degree Days 50 41  
Month to date heating degree days 923  
Since 1 July heating degree days 3402  
Cooling Degree Days 0 0  
Month to date cooling degree days 0  
Year to date cooling degree days 0  
Moisture  
Dew Point 6 °F    
Average Humidity 59    
Maximum Humidity 71    
Minimum Humidity 41    
Precipitation  
Precipitation 0.00 in 0.02 in 0.94 in (1982)
Month to date precipitation 0.49  
Year to date precipitation 0.49  
Snow  
Snow 0.00 in 0.20 in - ()
Month to date snowfall 4.2  
Since 1 July snowfall 13.2  
Snow Depth -    
Sea Level Pressure  
Sea Level Pressure 30.25 in    
Wind  
Wind Speed 10 mph (NW)    
Max Wind Speed 21 mph    
Max Gust Speed 31 mph    
Visibility 10 miles    
Events Snow    
T = Trace of Precipitation, MM = Missing Value Source: NWS Daily Summary

Daily Weather History Graph

Daily Weather History Graph

Search for Another Location

Airport:

Trip Planner

Search our weather history database for the weather conditions in past years. The results will help you decide how hot, cold, wet, or windy it might be!

Date:

Astronomy

Jan. 22, 2014 Rise Set
Actual Time 7:43 AM CST 5:28 PM CST
Civil Twilight 7:13 AM CST 5:58 PM CST
Nautical Twilight 6:40 AM CST 6:32 PM CST
Astronomical Twilight 6:07 AM CST 7:05 PM CST
Moon No Moon Rise 10:41 AM CST (1/22)
Length of Visible Light 10h 44m
Length of Day
9h 45m
Waning Gibbous, 65% of the Moon is Illuminated
Jan 22
Waning Gibbous
Jan 23
Last Quarter
Jan 30
New
Feb 6
First Quarter
Feb 14
Full

Hourly Weather History & Observations

Time (CST) Temp. Windchill Dew Point Humidity Pressure Visibility Wind Dir Wind Speed Gust Speed Precip Events Conditions
12:15 AM 27.1 °F 18.2 °F 12.9 °F 55% 30.06 in 10.0 mi NW 9.2 mph - N/A   Overcast
12:35 AM 28.2 °F 18.3 °F 17.6 °F 64% 30.05 in 10.0 mi NNW 11.5 mph 20.7 mph N/A   Overcast
12:55 AM 27.9 °F 18.4 °F 17.4 °F 65% 30.05 in 10.0 mi NW 10.4 mph - N/A   Overcast
1:15 AM 27.7 °F 16.6 °F 17.8 °F 66% 30.06 in 10.0 mi NW 13.8 mph 18.4 mph N/A   Overcast
1:35 AM 27.5 °F 18.0 °F 18.5 °F 69% 30.05 in 10.0 mi NNW 10.4 mph 17.3 mph N/A   Overcast
1:55 AM 27.3 °F 18.4 °F 18.5 °F 69% 30.05 in 10.0 mi NNW 9.2 mph 17.3 mph N/A   Overcast
2:15 AM 27.1 °F 21.8 °F 18.5 °F 70% 30.05 in 10.0 mi NNW 4.6 mph - N/A   Overcast
2:35 AM 27.1 °F 21.8 °F 18.3 °F 69% 30.05 in 10.0 mi NW 4.6 mph - N/A   Overcast
2:55 AM 27.0 °F 18.0 °F 18.1 °F 69% 30.06 in 10.0 mi NW 9.2 mph - N/A   Overcast
3:15 AM 27.1 °F 20.7 °F 18.0 °F 68% 30.06 in 10.0 mi NW 5.8 mph - N/A   Overcast
3:55 AM 27.0 °F 17.3 °F 17.4 °F 67% 30.06 in 10.0 mi WNW 10.4 mph - N/A   Overcast
4:15 AM 27.1 °F 15.4 °F 17.1 °F 66% 30.06 in 10.0 mi WNW 15.0 mph - N/A   Overcast
4:35 AM 26.6 °F 15.7 °F 15.8 °F 64% 30.07 in 10.0 mi NNW 12.7 mph 21.9 mph N/A   Mostly Cloudy
4:55 AM 25.7 °F 13.1 °F 14.0 °F 61% 30.07 in 10.0 mi NNW 16.1 mph 26.5 mph N/A   Scattered Clouds
5:15 AM 24.1 °F 12.5 °F 13.1 °F 63% 30.08 in 10.0 mi NNW 12.7 mph 25.3 mph N/A   Clear
5:35 AM 23.2 °F 10.8 °F 12.9 °F 65% 30.09 in 10.0 mi NNW 13.8 mph 18.4 mph N/A   Clear
5:55 AM 22.1 °F 9.5 °F 12.2 °F 66% 30.10 in 10.0 mi NNW 13.8 mph 24.2 mph N/A   Scattered Clouds
6:15 AM 21.2 °F 8.9 °F 11.1 °F 65% 30.12 in 10.0 mi NNW 12.7 mph 26.5 mph N/A   Scattered Clouds
6:35 AM 19.8 °F 9.1 °F 10.2 °F 67% 30.13 in 10.0 mi NNW 9.2 mph 17.3 mph N/A   Mostly Cloudy
6:55 AM 18.5 °F 7.5 °F 9.5 °F 68% 30.14 in 10.0 mi NNW 9.2 mph - N/A   Scattered Clouds
7:15 AM 18.3 °F 6.6 °F 9.5 °F 68% 30.15 in 10.0 mi NNW 10.4 mph 16.1 mph N/A   Clear
7:35 AM 17.6 °F 8.2 °F 9.3 °F 70% 30.15 in 10.0 mi NW 6.9 mph - N/A   Clear
7:55 AM 17.2 °F 10.2 °F 9.3 °F 71% 30.15 in 10.0 mi NW 4.6 mph - N/A   Clear
8:15 AM 17.1 °F - 9.0 °F 71% 30.14 in 10.0 mi Calm Calm - N/A   Clear
8:35 AM 17.4 °F - 9.3 °F 71% 30.14 in 10.0 mi Calm Calm - N/A   Clear
8:55 AM 18.5 °F 11.7 °F 9.7 °F 68% 30.13 in 10.0 mi West 4.6 mph - N/A   Clear
9:15 AM 19.8 °F 14.7 °F 10.0 °F 66% 30.13 in 10.0 mi WNW 3.5 mph - N/A   Clear
9:35 AM 20.8 °F 13.2 °F 10.4 °F 64% 30.14 in 10.0 mi WNW 5.8 mph - N/A   Clear
9:55 AM 21.6 °F 12.1 °F 10.8 °F 63% 30.15 in 10.0 mi West 8.1 mph - N/A   Clear
10:15 AM 23.2 °F 11.4 °F 11.7 °F 61% 30.17 in 10.0 mi NW 12.7 mph 16.1 mph N/A   Scattered Clouds
10:35 AM 23.2 °F 12.0 °F 11.5 °F 61% 30.17 in 10.0 mi WNW 11.5 mph 16.1 mph N/A   Mostly Cloudy
10:55 AM 23.9 °F 15.8 °F 11.8 °F 60% 30.17 in 10.0 mi NW 6.9 mph - N/A   Overcast
11:15 AM 24.8 °F 12.9 °F 11.1 °F 56% 30.17 in 10.0 mi NW 13.8 mph 17.3 mph N/A   Overcast
11:35 AM 24.8 °F 15.3 °F 10.6 °F 55% 30.17 in 10.0 mi NW 9.2 mph - N/A   Overcast
11:55 AM 25.0 °F 18.1 °F 10.4 °F 54% 30.16 in 10.0 mi NW 5.8 mph - N/A   Overcast
12:15 PM 25.7 °F 19.0 °F 10.9 °F 54% 30.15 in 10.0 mi WNW 5.8 mph - N/A   Overcast
12:35 PM 27.0 °F 18.7 °F 10.9 °F 51% 30.15 in 10.0 mi NW 8.1 mph - N/A   Overcast
12:55 PM 27.5 °F 21.1 °F 10.8 °F 49% 30.15 in 10.0 mi NW 5.8 mph - N/A   Overcast
1:15 PM 29.1 °F 19.4 °F 12.7 °F 50% 30.15 in 10.0 mi NNW 11.5 mph 20.7 mph N/A   Overcast
1:35 PM 26.1 °F 17.6 °F 14.0 °F 60% 30.17 in 4.0 mi North 8.1 mph 21.9 mph N/A Snow Light Snow
1:55 PM 23.0 °F 14.7 °F 14.9 °F 71% 30.18 in 4.0 mi North 6.9 mph 19.6 mph N/A Snow Light Snow
2:15 PM 24.8 °F 14.6 °F 12.0 °F 58% 30.18 in 10.0 mi North 10.4 mph 23.0 mph N/A   Overcast
2:35 PM 25.0 °F 12.2 °F 9.7 °F 52% 30.20 in 10.0 mi NNW 16.1 mph 27.6 mph N/A   Overcast
2:55 PM 24.3 °F 12.7 °F 8.2 °F 51% 30.21 in 10.0 mi NNW 12.7 mph 26.5 mph N/A   Overcast
3:15 PM 23.7 °F 10.1 °F 11.5 °F 60% 30.24 in 5.0 mi NNW 17.3 mph 24.2 mph N/A Snow Light Snow
3:35 PM 23.0 °F 9.2 °F 7.2 °F 51% 30.25 in 10.0 mi NNW 17.3 mph 27.6 mph N/A   Mostly Cloudy
3:55 PM 21.7 °F 7.1 °F 3.9 °F 46% 30.28 in 10.0 mi NW 18.4 mph 31.1 mph N/A   Scattered Clouds
4:15 PM 19.6 °F 6.2 °F 4.3 °F 52% 30.30 in 10.0 mi North 13.8 mph 27.6 mph N/A   Scattered Clouds
4:35 PM 16.0 °F 2.3 °F 3.9 °F 59% 30.32 in 10.0 mi North 12.7 mph 21.9 mph N/A   Scattered Clouds
4:55 PM 15.4 °F 1.0 °F -0.4 °F 50% 30.34 in 10.0 mi NNW 13.8 mph 28.8 mph N/A   Clear
5:15 PM 13.8 °F -2.2 °F -5.3 °F 43% 30.35 in 10.0 mi NNW 16.1 mph 26.5 mph N/A   Clear
5:35 PM 12.0 °F -6.0 °F -8.0 °F 41% 30.38 in 10.0 mi NNW 19.6 mph 26.5 mph N/A   Clear
5:55 PM 10.0 °F -9.1 °F -8.3 °F 43% 30.40 in 10.0 mi NNW 20.7 mph 29.9 mph N/A   Clear
6:15 PM 9.0 °F -7.9 °F -8.5 °F 45% 30.42 in 10.0 mi NNW 15.0 mph 21.9 mph N/A   Clear
6:35 PM 8.2 °F -8.2 °F -8.1 °F 47% 30.43 in 10.0 mi NNW 13.8 mph 21.9 mph N/A   Clear
6:55 PM 7.0 °F -8.3 °F -9.6 °F 47% 30.45 in 10.0 mi NNW 11.5 mph 25.3 mph N/A   Clear
7:15 PM 6.6 °F -9.5 °F -9.4 °F 48% 30.46 in 10.0 mi NNW 12.7 mph 23.0 mph N/A   Clear
7:35 PM 5.9 °F -9.7 °F -9.4 °F 50% 30.47 in 10.0 mi North 11.5 mph 27.6 mph N/A   Clear
7:55 PM 5.0 °F -12.3 °F -9.9 °F 50% 30.48 in 10.0 mi NNW 13.8 mph 20.7 mph N/A   Clear
8:15 PM 4.5 °F -10.7 °F -9.8 °F 52% 30.49 in 10.0 mi NNW 10.4 mph 24.2 mph N/A   Clear
8:35 PM 3.7 °F -13.2 °F -10.1 °F 53% 30.51 in 10.0 mi NNW 12.7 mph 19.6 mph N/A   Clear
8:55 PM 3.2 °F -13.1 °F -10.3 °F 54% 30.51 in 10.0 mi NNW 11.5 mph 23.0 mph N/A   Clear
9:15 PM 2.5 °F -16.2 °F -10.7 °F 54% 30.52 in 10.0 mi NNW 15.0 mph 25.3 mph N/A   Clear
9:35 PM 2.1 °F -12.6 °F -10.5 °F 56% 30.53 in 10.0 mi NNW 9.2 mph 17.3 mph N/A   Clear
9:55 PM 1.4 °F -16.1 °F -10.7 °F 57% 30.55 in 10.0 mi NNW 12.7 mph 19.6 mph N/A   Clear
10:15 PM 1.0 °F -15.8 °F -11.0 °F 57% 30.55 in 10.0 mi North 11.5 mph 23.0 mph N/A   Clear
10:35 PM 0.9 °F -17.6 °F -11.2 °F 57% 30.57 in 10.0 mi NNW 13.8 mph 20.7 mph N/A   Clear
10:55 PM 0.5 °F -15.6 °F -11.2 °F 58% 30.59 in 10.0 mi NW 10.4 mph 17.3 mph N/A   Clear
11:15 PM 0.1 °F -16.0 °F -11.2 °F 59% 30.60 in 10.0 mi NW 10.4 mph 16.1 mph N/A   Clear
11:35 PM -0.0 °F -16.3 °F -11.2 °F 59% 30.60 in 10.0 mi NW 10.4 mph - N/A   Clear
11:55 PM -0.4 °F -16.7 °F -11.2 °F 60% 30.61 in 10.0 mi NNW 10.4 mph 16.1 mph N/A   Clear